• In Belarus
  • List of Countries
  • For 7 days
  • Water Temperature
  • Satellite Maps
  • Weather Map
  • Weather Widgets
  • user-avatar
    Login

    Hourly Weather Ischgl

    Today, 22 February, Friday

    Time Temperature Precipitation Wind Pressure Humidity
    00:00 -7°C° 0 mm 1 mps 576 mmHg 95%
    01:00 -6°C° 0 mm 2 mps 577 mmHg 97%
    02:00 -6°C° 0.1 mm 2 mps 577 mmHg 97%
    03:00 -6°C° 0.1 mm 2 mps 577 mmHg 97%
    04:00 -6°C° 0.1 mm 2 mps 577 mmHg 96%
    05:00 -6°C° 0.1 mm 2 mps 577 mmHg 96%
    06:00 -5°C° 0.1 mm 2 mps 577 mmHg 96%
    07:00 -5°C° 0.1 mm 2 mps 577 mmHg 96%
    08:00 -5°C° 0.2 mm 2 mps 577 mmHg 95%
    09:00 -5°C° 0.2 mm 3 mps 577 mmHg 95%
    10:00 -4°C° 0.2 mm 3 mps 578 mmHg 95%
    11:00 -4°C° 0.2 mm 3 mps 578 mmHg 96%
    12:00 -4°C° 0.2 mm 3 mps 578 mmHg 97%
    13:00 -4°C° 0.2 mm 3 mps 578 mmHg 98%
    14:00 -4°C° 0.1 mm 3 mps 578 mmHg 97%
    15:00 -5°C° 0.1 mm 3 mps 578 mmHg 95%
    16:00 -5°C° 0.1 mm 3 mps 578 mmHg 93%
    17:00 -6°C° 0 mm 3 mps 577 mmHg 94%
    18:00 -7°C° 0 mm 3 mps 577 mmHg 95%
    19:00 -7°C° 0 mm 2 mps 577 mmHg 95%
    20:00 -9°C° 0 mm 2 mps 576 mmHg 94%
    21:00 -10°C° 0 mm 2 mps 576 mmHg 93%
    22:00 -13°C° 0 mm 2 mps 575 mmHg 92%
    23:00 -13°C° 0 mm 2 mps 575 mmHg 87%

    Tomorrow, 23 February, Saturday

    Time Temperature Precipitation Wind Pressure Humidity
    00:00 -13°C° 0 mm 2 mps 575 mmHg 82%
    01:00 -13°C° 0 mm 2 mps 575 mmHg 77%
    02:00 -13°C° 0 mm 2 mps 575 mmHg 66%
    03:00 -13°C° 0 mm 2 mps 575 mmHg 56%
    04:00 -13°C° 0 mm 2 mps 575 mmHg 45%
    05:00 -13°C° 0 mm 2 mps 575 mmHg 39%
    06:00 -13°C° 0 mm 2 mps 575 mmHg 33%
    07:00 -13°C° 0 mm 2 mps 576 mmHg 26%
    08:00 -9°C° 0 mm 2 mps 577 mmHg 35%
    09:00 -7°C° 0 mm 2 mps 578 mmHg 45%
    10:00 -4°C° 0 mm 2 mps 579 mmHg 54%
    11:00 -4°C° 0 mm 2 mps 580 mmHg 60%
    12:00 -3°C° 0 mm 2 mps 580 mmHg 67%
    13:00 -2°C° 0 mm 3 mps 580 mmHg 73%
    14:00 -2°C° 0 mm 2 mps 580 mmHg 74%
    15:00 -2°C° 0 mm 2 mps 580 mmHg 74%
    16:00 -2°C° 0 mm 2 mps 579 mmHg 75%
    17:00 -4°C° 0 mm 2 mps 579 mmHg 66%
    18:00 -7°C° 0 mm 2 mps 578 mmHg 57%
    19:00 -9°C° 0 mm 2 mps 577 mmHg 48%
    20:00 -8°C° 0 mm 2 mps 577 mmHg 42%
    21:00 -8°C° 0 mm 2 mps 578 mmHg 36%
    22:00 -8°C° 0 mm 2 mps 578 mmHg 30%
    23:00 -8°C° 0 mm 2 mps 578 mmHg 30%

    Day after tomorrow, 24 February, Sunday

    Time Temperature Precipitation Wind Pressure Humidity
    00:00 -8°C° 0 mm 2 mps 578 mmHg 30%
    01:00 -8°C° 0 mm 2 mps 578 mmHg 29%
    02:00 -7°C° 0 mm 1 mps 578 mmHg 30%
    03:00 -7°C° 0 mm 1 mps 578 mmHg 31%
    04:00 -7°C° 0 mm 1 mps 578 mmHg 32%
    05:00 -7°C° 0 mm 1 mps 578 mmHg 34%
    06:00 -7°C° 0 mm 1 mps 578 mmHg 36%
    07:00 -7°C° 0 mm 1 mps 578 mmHg 38%
    08:00 -4°C° 0 mm 1 mps 579 mmHg 49%
    09:00 -2°C° 0 mm 1 mps 581 mmHg 61%
    10:00 0°C° 0 mm 1 mps 582 mmHg 72%
    11:00 +1°C° 0 mm 1 mps 582 mmHg 81%
    12:00 +1°C° 0 mm 1 mps 582 mmHg 90%
    13:00 +2°C° 0 mm 1 mps 582 mmHg 99%
    14:00 +1°C° 0 mm 1 mps 582 mmHg 97%
    15:00 +1°C° 0 mm 1 mps 581 mmHg 95%
    16:00 +1°C° 0 mm 1 mps 581 mmHg 94%
    17:00 0°C° 0 mm 1 mps 581 mmHg 86%
    18:00 -2°C° 0 mm 1 mps 580 mmHg 79%
    19:00 -3°C° 0 mm 1 mps 580 mmHg 71%
    20:00 -4°C° 0 mm 1 mps 580 mmHg 66%
    21:00 -6°C° 0 mm 2 mps 580 mmHg 62%
    22:00 -6°C° 0 mm 2 mps 580 mmHg 57%
    23:00 -6°C° 0 mm 2 mps 580 mmHg 55%

    25 February, Monday

    Time Temperature Precipitation Wind Pressure Humidity
    00:00 -6°C° 0 mm 2 mps 580 mmHg 54%
    01:00 -6°C° 0 mm 2 mps 580 mmHg 52%
    02:00 -6°C° 0 mm 2 mps 580 mmHg 50%
    03:00 -6°C° 0 mm 2 mps 580 mmHg 48%
    04:00 -4°C° 0 mm 1 mps 580 mmHg 46%
    05:00 -4°C° 0 mm 1 mps 580 mmHg 44%
    06:00 -4°C° 0 mm 1 mps 580 mmHg 42%
    07:00 -4°C° 0 mm 1 mps 580 mmHg 40%
    08:00 -3°C° 0 mm 1 mps 581 mmHg 50%
    09:00 -1°C° 0 mm 1 mps 582 mmHg 60%
    10:00 +1°C° 0 mm 1 mps 583 mmHg 70%
    11:00 +2°C° 0 mm 1 mps 583 mmHg 79%
    12:00 +2°C° 0 mm 1 mps 583 mmHg 87%
    13:00 +3°C° 0 mm 1 mps 583 mmHg 95%
    14:00 +2°C° 0 mm 1 mps 582 mmHg 93%
    15:00 +2°C° 0 mm 1 mps 582 mmHg 91%
    16:00 +2°C° 0 mm 1 mps 582 mmHg 88%
    17:00 0°C° 0 mm 1 mps 581 mmHg 84%
    18:00 -1°C° 0 mm 1 mps 581 mmHg 79%
    19:00 -5°C° 0 mm 2 mps 580 mmHg 74%
    20:00 -3°C° 0 mm 1 mps 580 mmHg 68%
    21:00 -3°C° 0 mm 1 mps 580 mmHg 62%
    22:00 -4°C° 0 mm 1 mps 580 mmHg 56%
    23:00 -4°C° 0 mm 1 mps 580 mmHg 53%

    26 February, Tuesday

    Time Temperature Precipitation Wind Pressure Humidity
    00:00 -4°C° 0 mm 1 mps 580 mmHg 50%
    01:00 -4°C° 0 mm 1 mps 579 mmHg 46%
    02:00 -4°C° 0 mm 1 mps 579 mmHg 44%
    03:00 -4°C° 0 mm 1 mps 579 mmHg 42%
    04:00 -4°C° 0 mm 1 mps 579 mmHg 40%
    05:00 -4°C° 0 mm 1 mps 579 mmHg 37%
    06:00 -4°C° 0 mm 1 mps 579 mmHg 35%
    07:00 -4°C° 0 mm 1 mps 579 mmHg 33%
    08:00 -2°C° 0 mm 1 mps 579 mmHg 42%
    09:00 0°C° 0 mm 1 mps 580 mmHg 51%
    10:00 -1°C° 0 mm 2 mps 581 mmHg 60%
    11:00 +1°C° 0 mm 2 mps 581 mmHg 67%
    12:00 +1°C° 0 mm 2 mps 581 mmHg 75%
    13:00 +2°C° 0 mm 2 mps 581 mmHg 83%
    14:00 +1°C° 0 mm 2 mps 581 mmHg 81%
    15:00 +1°C° 0 mm 2 mps 580 mmHg 79%
    16:00 +1°C° 0 mm 2 mps 580 mmHg 77%
    17:00 -2°C° 0 mm 2 mps 579 mmHg 71%
    18:00 -3°C° 0 mm 2 mps 579 mmHg 65%
    19:00 -5°C° 0 mm 2 mps 578 mmHg 59%
    20:00 -5°C° 0 mm 2 mps 578 mmHg 55%
    21:00 -5°C° 0 mm 2 mps 578 mmHg 50%
    22:00 -5°C° 0 mm 2 mps 578 mmHg 46%
    23:00 -5°C° 0 mm 2 mps 578 mmHg 46%

    27 February, Wednesday

    Time Temperature Precipitation Wind Pressure Humidity
    00:00 -5°C° 0 mm 2 mps 578 mmHg 46%
    01:00 -5°C° 0 mm 2 mps 578 mmHg 46%
    02:00 -5°C° 0 mm 2 mps 578 mmHg 51%
    03:00 -5°C° 0 mm 2 mps 578 mmHg 56%
    04:00 -4°C° 0 mm 2 mps 577 mmHg 61%
    05:00 -3°C° 0 mm 1 mps 577 mmHg 66%
    06:00 -3°C° 0 mm 1 mps 577 mmHg 70%
    07:00 -3°C° 0 mm 1 mps 577 mmHg 75%
    08:00 -1°C° 0 mm 1 mps 578 mmHg 79%
    09:00 0°C° 0 mm 1 mps 578 mmHg 84%
    10:00 +2°C° 0 mm 1 mps 579 mmHg 89%
    11:00 +2°C° 0 mm 1 mps 579 mmHg 89%
    12:00 +3°C° 0 mm 1 mps 579 mmHg 89%
    13:00 +4°C° 0 mm 1 mps 579 mmHg 89%
    14:00 +3°C° 0 mm 1 mps 579 mmHg 90%
    15:00 +2°C° 0 mm 0 mps 578 mmHg 91%
    16:00 +2°C° 0 mm 0 mps 578 mmHg 92%
    17:00 +1°C° 0 mm 0 mps 578 mmHg 89%
    18:00 +1°C° 0 mm 1 mps 577 mmHg 85%
    19:00 -1°C° 0 mm 1 mps 576 mmHg 82%
    20:00 -1°C° 0 mm 1 mps 576 mmHg 78%
    21:00 -1°C° 0 mm 1 mps 576 mmHg 74%
    22:00 -1°C° 0 mm 1 mps 576 mmHg 70%
    23:00 -1°C° 0 mm 1 mps 576 mmHg 67%
    Show more